Lea County Regional Airport
KHOB : now visible

Airfield :











YOU CAN JOIN US ON...

 
LOGIN :

Register | Disclaimer

   EN    FR    IT 

 









Legend :    VFR   Marginal VFR   IFR   Intensive IFR   Very Intensive IFR
Visi :
Ceiling :
>= 8 km
>= 3000ft
5 to 8 km
1000 to 3000 ft
1500m to 5 km
500 to 1000 ft
800 to 1500m
200 to 500 ft
< 800m
< 200 ft
Symbols :   Thunderstorms  Fog  Heavy snow  Heavy precipitations  Wind > 20 kt






- Airport Elevation : 3661 ft


KHOB - Lea County Regional

CURRENT METAR :
  • 300015Z AUTO 17010G16KT 10SM CLR 30/13 A2999 RMK AO2

EXPIRED METARs :
  • 292350Z 15014KT 10SM CLR 31/13 A2999
  • 292250Z 15013G19KT 10SM CLR 31/14 A3000
  • 292150Z 14009G16KT 10SM CLR 30/14 A3002
  • 292050Z VRB06KT 10SM CLR 28/14 A3005
  • 291950Z 00000KT CLR 26/13 A3009

TAF KHOB
Valid from the 30 at 00:00 until the 31 at 00:00 UTC


292320Z 3000/3024 15011KT P6SM FEW050
FM302000 20013G21KT P6SM FEW250
KZFW FIR / North America



MET'MAP, your aeronautical weather chart ! - Copyright ORBIFLY December 2007 - Disclaimer

ORBIFLY MET'MAP TEAM :

Programming & Development : Alexandra Zaïnal
Original concept : Baudouin d'Aumeries
Technical & hardware support : Manuel Goepfert
Assistance : Marc-Olivier Méhu




SOURCES & CREDITS :

   NOAA       Earth
Advisory